CQH3531 ZSQD-ZSZS

Flight info

Callsign CQH3531
Flight time 1h 21m
Altitude 29100
Route LAT81D LATUX W108 MATNU/K0867S1100 W115 PINOT W13 HSN
Aircraft A320/M-SDE3FGHIRWY/LB1

Departure

Time 2026-04-14 09:29
Airport Qingdao Jiaodong International Airport (ZSQD)

Arrival

Time 2026-04-14 10:51
Airport Zhoushan Putuoshan International Airport (ZSZS)
Time Latitude Longitude Altitude Speed Heading
2026-04-14 09:06 36.36196 120.08257 38 ft 0 kts 12°
2026-04-14 09:22 36.36188 120.08255 37 ft 3 kts 12°
2026-04-14 09:22 36.36170 120.08249 36 ft 3 kts 10°
2026-04-14 09:22 36.36152 120.08248 36 ft 3 kts 333°
2026-04-14 09:23 36.36139 120.08263 35 ft 3 kts 290°
2026-04-14 09:23 36.36135 120.08281 34 ft 1 kts 282°
2026-04-14 09:23 36.36135 120.08282 38 ft 0 kts 282°
2026-04-14 09:24 36.36135 120.08279 35 ft 3 kts 282°
2026-04-14 09:24 36.36146 120.08219 38 ft 12 kts 282°
2026-04-14 09:25 36.36168 120.08088 37 ft 20 kts 281°
2026-04-14 09:25 36.36154 120.07901 38 ft 17 kts 253°
2026-04-14 09:25 36.36225 120.07821 38 ft 15 kts 341°
2026-04-14 09:25 36.36334 120.07779 38 ft 19 kts 342°
2026-04-14 09:26 36.36472 120.07724 38 ft 23 kts 342°
2026-04-14 09:26 36.36637 120.07660 38 ft 26 kts 342°
2026-04-14 09:26 36.36775 120.07606 37 ft 19 kts 342°
2026-04-14 09:26 36.36902 120.07557 39 ft 20 kts 343°
2026-04-14 09:27 36.37035 120.07504 38 ft 21 kts 342°
2026-04-14 09:27 36.37096 120.07422 39 ft 13 kts 257°
2026-04-14 09:27 36.37069 120.07320 38 ft 5 kts 252°
2026-04-14 09:27 36.37069 120.07319 38 ft 0 kts 252°
2026-04-14 09:28 36.37058 120.07278 36 ft 10 kts 251°
2026-04-14 09:28 36.36998 120.07210 37 ft 16 kts 174°
2026-04-14 09:28 36.36839 120.07275 38 ft 48 kts 163°
2026-04-14 09:29 36.36296 120.07485 39 ft 112 kts 162°
2026-04-14 09:29 36.35384 120.07842 40 ft 161 kts 162°
2026-04-14 09:29 36.34278 120.08270 559 ft 166 kts 162°
2026-04-14 09:29 36.33171 120.08694 1350 ft 166 kts 163°
2026-04-14 09:30 36.32057 120.09129 1985 ft 173 kts 163°
2026-04-14 09:30 36.30833 120.09610 2307 ft 195 kts 162°
2026-04-14 09:30 36.29466 120.10152 2594 ft 217 kts 162°
2026-04-14 09:30 36.27956 120.10750 2953 ft 240 kts 161°
2026-04-14 09:31 36.26306 120.11451 3449 ft 260 kts 155°
2026-04-14 09:31 36.24750 120.12632 4243 ft 265 kts 139°
2026-04-14 09:31 36.23428 120.14247 5131 ft 268 kts 132°
2026-04-14 09:31 36.22124 120.15917 6056 ft 271 kts 133°
2026-04-14 09:32 36.20823 120.17570 6945 ft 273 kts 134°
2026-04-14 09:32 36.19483 120.19265 7761 ft 278 kts 134°
2026-04-14 09:32 36.16732 120.22735 9406 ft 287 kts 134°
2026-04-14 09:33 36.15327 120.24513 10171 ft 292 kts 134°
2026-04-14 09:33 36.13855 120.26381 10491 ft 314 kts 135°
2026-04-14 09:33 36.12272 120.28392 10712 ft 338 kts 135°
2026-04-14 09:33 36.10580 120.30540 10985 ft 357 kts 135°
2026-04-14 09:34 36.08825 120.32764 11563 ft 365 kts 135°
2026-04-14 09:34 36.07036 120.35029 12239 ft 370 kts 135°
2026-04-14 09:34 36.05225 120.37320 12894 ft 375 kts 135°
2026-04-14 09:34 36.03382 120.39652 13548 ft 381 kts 135°
2026-04-14 09:35 36.01521 120.42003 14151 ft 386 kts 135°
2026-04-14 09:35 36.00271 120.43580 14537 ft 389 kts 136°
2026-04-14 09:35 35.98367 120.45986 15115 ft 394 kts 136°
2026-04-14 09:35 35.96343 120.48278 15683 ft 396 kts 144°
2026-04-14 09:36 35.94022 120.50107 16235 ft 397 kts 156°
2026-04-14 09:36 35.91502 120.51514 16807 ft 400 kts 159°
2026-04-14 09:36 35.88944 120.52899 17380 ft 404 kts 160°
2026-04-14 09:36 35.86360 120.54304 17925 ft 408 kts 160°
2026-04-14 09:37 35.83750 120.55733 18431 ft 412 kts 160°
2026-04-14 09:37 35.81127 120.57176 18901 ft 415 kts 160°
2026-04-14 09:37 35.78480 120.58635 19377 ft 418 kts 160°
2026-04-14 09:37 35.75813 120.60103 19848 ft 422 kts 160°
2026-04-14 09:38 35.73128 120.61585 20311 ft 425 kts 159°
2026-04-14 09:38 35.70451 120.63197 20771 ft 430 kts 157°
2026-04-14 09:38 35.67803 120.64943 21222 ft 434 kts 155°
2026-04-14 09:38 35.65162 120.66777 21657 ft 438 kts 154°
2026-04-14 09:39 35.62511 120.68653 22079 ft 441 kts 154°
2026-04-14 09:39 35.59880 120.70506 22550 ft 443 kts 155°
2026-04-14 09:39 35.57193 120.72372 23002 ft 445 kts 155°
2026-04-14 09:39 35.54482 120.74226 23441 ft 447 kts 155°
2026-04-14 09:40 35.51746 120.76068 23799 ft 450 kts 156°
2026-04-14 09:40 35.48983 120.77904 24169 ft 451 kts 158°
2026-04-14 09:40 35.46130 120.79439 24524 ft 449 kts 163°
2026-04-14 09:40 35.43226 120.80868 24895 ft 450 kts 163°
2026-04-14 09:41 35.40344 120.82287 25250 ft 452 kts 163°
2026-04-14 09:41 35.37393 120.83746 25622 ft 453 kts 163°
2026-04-14 09:41 35.34465 120.85197 25978 ft 455 kts 163°
2026-04-14 09:41 35.31519 120.86656 26343 ft 456 kts 163°
2026-04-14 09:42 35.28581 120.88108 26691 ft 458 kts 164°
2026-04-14 09:42 35.25614 120.89571 27026 ft 459 kts 164°
2026-04-14 09:42 35.22645 120.91036 27354 ft 461 kts 164°
2026-04-14 09:42 35.19668 120.92505 27675 ft 462 kts 164°
2026-04-14 09:43 35.16684 120.93975 27992 ft 463 kts 164°
2026-04-14 09:43 35.13695 120.95448 28303 ft 465 kts 164°
2026-04-14 09:43 35.10686 120.96937 28564 ft 467 kts 164°
2026-04-14 09:43 35.07676 120.98431 28883 ft 467 kts 164°
2026-04-14 09:44 35.04669 120.99929 29065 ft 465 kts 164°
2026-04-14 09:44 34.98726 121.02893 29080 ft 460 kts 164°
2026-04-14 09:45 34.92841 121.05810 29081 ft 459 kts 165°
2026-04-14 09:45 34.86888 121.08757 29080 ft 459 kts 165°
2026-04-14 09:46 34.81003 121.11665 29079 ft 460 kts 165°
2026-04-14 09:46 34.75071 121.14585 29071 ft 460 kts 165°
2026-04-14 09:47 34.69142 121.17501 29068 ft 459 kts 165°
2026-04-14 09:47 34.63207 121.20420 29063 ft 459 kts 165°
2026-04-14 09:48 34.57288 121.23324 29063 ft 460 kts 165°
2026-04-14 09:48 34.54300 121.24783 29229 ft 465 kts 165°
2026-04-14 09:48 34.51295 121.26253 29593 ft 465 kts 165°
2026-04-14 09:48 34.48306 121.27716 30013 ft 463 kts 165°
2026-04-14 09:49 34.45323 121.29178 30377 ft 462 kts 165°
2026-04-14 09:49 34.42333 121.30643 30707 ft 462 kts 165°
2026-04-14 09:49 34.39396 121.32080 30986 ft 462 kts 165°
2026-04-14 09:50 34.33430 121.34993 31062 ft 462 kts 165°
2026-04-14 09:50 34.27455 121.37899 31075 ft 463 kts 165°
2026-04-14 09:51 34.21465 121.40808 31074 ft 464 kts 165°
2026-04-14 09:51 34.15475 121.43721 31075 ft 465 kts 165°
2026-04-14 09:52 34.09421 121.46649 31074 ft 471 kts 165°
2026-04-14 09:52 34.03322 121.49599 31046 ft 473 kts 165°
2026-04-14 09:53 33.97206 121.52554 31037 ft 474 kts 166°
2026-04-14 09:53 33.91071 121.55513 31048 ft 476 kts 166°
2026-04-14 09:54 33.84908 121.58480 31056 ft 477 kts 166°
2026-04-14 09:54 33.78774 121.61426 31042 ft 477 kts 166°
2026-04-14 09:55 33.72611 121.64384 31055 ft 478 kts 166°
2026-04-14 09:55 33.66425 121.67378 31062 ft 479 kts 165°
2026-04-14 09:56 33.60256 121.70418 31068 ft 479 kts 165°
2026-04-14 09:56 33.54084 121.73448 31044 ft 479 kts 166°
2026-04-14 09:57 33.47906 121.76466 31050 ft 479 kts 166°
2026-04-14 09:57 33.41714 121.79479 31056 ft 480 kts 166°
2026-04-14 09:58 33.35531 121.82489 31050 ft 481 kts 166°
2026-04-14 09:58 33.29342 121.85508 31033 ft 481 kts 167°
2026-04-14 09:59 33.23171 121.88517 31047 ft 481 kts 167°
2026-04-14 09:59 33.16957 121.91527 31050 ft 481 kts 167°
2026-04-14 10:00 33.10765 121.94513 31053 ft 481 kts 167°
2026-04-14 10:00 33.04554 121.97512 31057 ft 481 kts 167°
2026-04-14 10:01 32.98354 122.00502 31044 ft 481 kts 169°
2026-04-14 10:01 32.92131 122.03498 31051 ft 482 kts 169°
2026-04-14 10:02 32.85897 122.06503 31056 ft 483 kts 169°
2026-04-14 10:02 32.79659 122.09499 31045 ft 483 kts 169°
2026-04-14 10:03 32.73424 122.12491 31051 ft 483 kts 169°
2026-04-14 10:03 32.67239 122.15462 31061 ft 482 kts 169°
2026-04-14 10:04 32.61019 122.18438 31060 ft 481 kts 170°
2026-04-14 10:04 32.54813 122.21399 31062 ft 481 kts 170°
2026-04-14 10:05 32.48604 122.24362 31045 ft 481 kts 169°
2026-04-14 10:05 32.42379 122.27320 31054 ft 480 kts 170°
2026-04-14 10:06 32.36187 122.30264 31060 ft 481 kts 170°
2026-04-14 10:06 32.29971 122.33213 31060 ft 480 kts 170°
2026-04-14 10:07 32.23817 122.36125 31016 ft 480 kts 169°
2026-04-14 10:07 32.17594 122.39072 31057 ft 481 kts 169°
2026-04-14 10:08 32.11396 122.42005 31063 ft 481 kts 169°
2026-04-14 10:08 32.05191 122.44933 31064 ft 480 kts 169°
2026-04-14 10:09 31.98976 122.47856 31064 ft 480 kts 169°
2026-04-14 10:09 31.92768 122.50777 31064 ft 480 kts 169°
2026-04-14 10:10 31.86578 122.53682 31055 ft 479 kts 169°
2026-04-14 10:10 31.80387 122.56597 31052 ft 479 kts 169°
2026-04-14 10:11 31.74229 122.59412 31054 ft 472 kts 174°
2026-04-14 10:11 31.71086 122.60225 31044 ft 456 kts 184°
2026-04-14 10:11 31.67946 122.60384 31033 ft 442 kts 193°
2026-04-14 10:11 31.64940 122.59941 31031 ft 430 kts 202°
2026-04-14 10:12 31.62111 122.58953 31040 ft 419 kts 210°
2026-04-14 10:12 31.57176 122.55618 31036 ft 404 kts 224°
2026-04-14 10:13 31.52687 122.51684 31039 ft 405 kts 223°
2026-04-14 10:13 31.48148 122.47758 30934 ft 411 kts 220°
2026-04-14 10:13 31.45608 122.46141 30557 ft 422 kts 210°
2026-04-14 10:14 31.42766 122.45089 30186 ft 435 kts 200°
2026-04-14 10:14 31.39708 122.44674 29779 ft 448 kts 191°
2026-04-14 10:14 31.36585 122.44503 29341 ft 451 kts 191°
2026-04-14 10:14 31.33427 122.44326 28904 ft 453 kts 191°
2026-04-14 10:15 31.30322 122.44150 28436 ft 455 kts 191°
2026-04-14 10:15 31.27109 122.43967 27890 ft 457 kts 191°
2026-04-14 10:15 31.23924 122.43783 27387 ft 459 kts 191°
2026-04-14 10:15 31.20769 122.43603 26899 ft 462 kts 190°
2026-04-14 10:16 31.17551 122.43423 26406 ft 464 kts 190°
2026-04-14 10:16 31.14315 122.43241 25929 ft 466 kts 190°
2026-04-14 10:16 31.11076 122.43060 25458 ft 468 kts 189°
2026-04-14 10:16 31.07806 122.42878 24994 ft 470 kts 189°
2026-04-14 10:17 31.04528 122.42693 24520 ft 473 kts 189°
2026-04-14 10:17 31.01242 122.42503 24065 ft 474 kts 189°
2026-04-14 10:17 30.97940 122.42318 23632 ft 473 kts 188°
2026-04-14 10:17 30.94648 122.42137 23114 ft 470 kts 188°
2026-04-14 10:18 30.88191 122.41786 21794 ft 461 kts 188°
2026-04-14 10:18 30.85041 122.41612 21158 ft 458 kts 188°
2026-04-14 10:18 30.81867 122.41433 20518 ft 454 kts 188°
2026-04-14 10:19 30.78739 122.41252 19899 ft 451 kts 188°
2026-04-14 10:19 30.75602 122.41071 19296 ft 447 kts 188°
2026-04-14 10:19 30.72506 122.40892 18705 ft 444 kts 188°
2026-04-14 10:19 30.69415 122.40716 18098 ft 442 kts 188°
2026-04-14 10:20 30.66367 122.40543 17436 ft 438 kts 188°
2026-04-14 10:20 30.63336 122.40372 16779 ft 434 kts 188°
2026-04-14 10:20 30.60327 122.40200 16133 ft 430 kts 188°
2026-04-14 10:20 30.57362 122.40034 15495 ft 426 kts 188°
2026-04-14 10:21 30.54399 122.39874 14865 ft 423 kts 188°
2026-04-14 10:21 30.51471 122.39721 14270 ft 419 kts 188°
2026-04-14 10:21 30.48563 122.39570 13657 ft 416 kts 188°
2026-04-14 10:21 30.45684 122.39420 13001 ft 412 kts 188°
2026-04-14 10:22 30.42833 122.39275 12350 ft 407 kts 187°
2026-04-14 10:22 30.40022 122.39131 11709 ft 403 kts 187°
2026-04-14 10:22 30.37245 122.38987 11203 ft 398 kts 187°
2026-04-14 10:22 30.34470 122.38839 10862 ft 396 kts 187°
2026-04-14 10:23 30.31764 122.38693 10528 ft 395 kts 187°
2026-04-14 10:23 30.29025 122.38547 10200 ft 393 kts 187°
2026-04-14 10:23 30.26314 122.38434 9894 ft 388 kts 184°
2026-04-14 10:23 30.23667 122.38729 9774 ft 373 kts 174°
2026-04-14 10:24 30.21204 122.39372 9799 ft 353 kts 172°
2026-04-14 10:24 30.19641 122.39796 9799 ft 339 kts 172°
2026-04-14 10:24 30.17397 122.40399 9804 ft 322 kts 172°
2026-04-14 10:24 30.14614 122.41143 9790 ft 301 kts 173°
2026-04-14 10:25 30.12595 122.41677 9794 ft 296 kts 173°
2026-04-14 10:25 30.10584 122.42201 9796 ft 295 kts 173°
2026-04-14 10:25 30.09229 122.42554 9779 ft 295 kts 173°
2026-04-14 10:25 30.06568 122.43250 9791 ft 296 kts 173°
2026-04-14 10:26 30.05213 122.43607 9750 ft 298 kts 173°
2026-04-14 10:26 30.03224 122.44135 9510 ft 296 kts 173°
2026-04-14 10:26 30.01242 122.44665 9291 ft 288 kts 173°
2026-04-14 10:26 29.99326 122.45180 9056 ft 276 kts 173°
2026-04-14 10:27 29.97503 122.45672 8896 ft 260 kts 173°
2026-04-14 10:27 29.95789 122.46134 8764 ft 246 kts 174°
2026-04-14 10:27 29.94160 122.46560 8649 ft 236 kts 177°
2026-04-14 10:27 29.92555 122.46762 8418 ft 230 kts 182°
2026-04-14 10:28 29.90964 122.46919 8172 ft 230 kts 182°
2026-04-14 10:28 29.89374 122.47079 7913 ft 229 kts 181°
2026-04-14 10:28 29.87790 122.47241 7647 ft 227 kts 181°
2026-04-14 10:28 29.86216 122.47401 7246 ft 227 kts 181°
2026-04-14 10:29 29.84645 122.47560 6847 ft 227 kts 181°
2026-04-14 10:29 29.83075 122.47719 6513 ft 227 kts 181°
2026-04-14 10:29 29.81500 122.47878 6228 ft 228 kts 181°
2026-04-14 10:29 29.79908 122.48038 5928 ft 229 kts 180°
2026-04-14 10:30 29.78313 122.48197 5629 ft 231 kts 180°
2026-04-14 10:30 29.76714 122.48351 5334 ft 230 kts 184°
2026-04-14 10:30 29.75179 122.48041 5028 ft 220 kts 210°
2026-04-14 10:30 29.73988 122.47047 4748 ft 206 kts 234°
2026-04-14 10:31 29.73308 122.45667 4438 ft 195 kts 256°
2026-04-14 10:31 29.73112 122.44157 4138 ft 188 kts 267°
2026-04-14 10:31 29.73000 122.42688 3834 ft 185 kts 267°
2026-04-14 10:31 29.72884 122.41208 3542 ft 182 kts 268°
2026-04-14 10:32 29.72898 122.39791 3240 ft 178 kts 290°
2026-04-14 10:32 29.73582 122.38641 2979 ft 178 kts 324°
2026-04-14 10:32 29.74749 122.38201 2732 ft 181 kts 355°
2026-04-14 10:32 29.76008 122.38125 2491 ft 181 kts 352°
2026-04-14 10:33 29.77259 122.37977 2333 ft 179 kts 352°
2026-04-14 10:33 29.78491 122.37843 2317 ft 177 kts 352°
2026-04-14 10:33 29.79717 122.37716 2297 ft 176 kts 352°
2026-04-14 10:33 29.80913 122.37596 2233 ft 165 kts 353°
2026-04-14 10:34 29.83114 122.37375 1876 ft 147 kts 352°
2026-04-14 10:34 29.84100 122.37277 1692 ft 139 kts 353°
2026-04-14 10:34 29.85054 122.37181 1491 ft 136 kts 353°
2026-04-14 10:35 29.85991 122.37087 1315 ft 134 kts 353°
2026-04-14 10:35 29.86923 122.36990 1099 ft 132 kts 352°
2026-04-14 10:35 29.87835 122.36852 955 ft 133 kts 352°
2026-04-14 10:35 29.88753 122.36747 773 ft 132 kts 353°
2026-04-14 10:36 29.89665 122.36636 588 ft 133 kts 352°
2026-04-14 10:36 29.90592 122.36536 406 ft 133 kts 354°
2026-04-14 10:36 29.91519 122.36422 248 ft 136 kts 353°
2026-04-14 10:36 29.92458 122.36325 44 ft 135 kts 355°
2026-04-14 10:37 29.93326 122.36241 43 ft 126 kts 355°
2026-04-14 10:37 29.94256 122.36164 633 ft 138 kts 355°
2026-04-14 10:37 29.95217 122.36088 1391 ft 139 kts 354°
2026-04-14 10:37 29.96184 122.36025 1916 ft 146 kts 354°
2026-04-14 10:38 29.97297 122.35954 2082 ft 169 kts 354°
2026-04-14 10:38 29.98497 122.35789 2321 ft 182 kts 338°
2026-04-14 10:38 29.99430 122.34876 2860 ft 178 kts 302°
2026-04-14 10:38 29.99749 122.33513 3377 ft 180 kts 270°
2026-04-14 10:39 29.99332 122.32156 3825 ft 189 kts 238°
2026-04-14 10:39 29.98243 122.31283 3889 ft 196 kts 199°
2026-04-14 10:39 29.96877 122.31387 3893 ft 204 kts 159°
2026-04-14 10:39 29.95798 122.32447 3894 ft 207 kts 129°
2026-04-14 10:40 29.94885 122.33741 3897 ft 208 kts 130°
2026-04-14 10:40 29.93969 122.35031 3896 ft 208 kts 130°
2026-04-14 10:40 29.93166 122.36405 3893 ft 208 kts 111°
2026-04-14 10:40 29.92980 122.38033 3894 ft 205 kts 81°
2026-04-14 10:41 29.93171 122.39669 3898 ft 206 kts 80°
2026-04-14 10:41 29.93363 122.41303 3894 ft 213 kts 79°
2026-04-14 10:41 29.93572 122.43057 3894 ft 225 kts 79°
2026-04-14 10:41 29.93592 122.44863 3884 ft 228 kts 106°
2026-04-14 10:42 29.92713 122.46345 3890 ft 226 kts 147°
2026-04-14 10:42 29.91267 122.46896 3801 ft 217 kts 180°
2026-04-14 10:42 29.89751 122.47005 3391 ft 220 kts 178°
2026-04-14 10:42 29.88222 122.47157 3049 ft 221 kts 177°
2026-04-14 10:43 29.86713 122.47319 2737 ft 220 kts 176°
2026-04-14 10:43 29.85188 122.47483 2409 ft 220 kts 176°
2026-04-14 10:43 29.83634 122.47647 2624 ft 225 kts 177°
2026-04-14 10:43 29.82083 122.47811 3398 ft 224 kts 178°
2026-04-14 10:44 29.80522 122.47974 3802 ft 225 kts 179°
2026-04-14 10:44 29.78974 122.48135 3885 ft 223 kts 179°
2026-04-14 10:44 29.77432 122.48286 3895 ft 221 kts 182°
2026-04-14 10:44 29.75988 122.47894 3892 ft 210 kts 217°
2026-04-14 10:45 29.75067 122.46703 3768 ft 192 kts 252°
2026-04-14 10:45 29.74732 122.45267 3623 ft 182 kts 262°
2026-04-14 10:45 29.74507 122.43846 3474 ft 180 kts 263°
2026-04-14 10:45 29.74297 122.42429 3329 ft 180 kts 263°
2026-04-14 10:46 29.74089 122.41029 3140 ft 180 kts 263°
2026-04-14 10:46 29.73896 122.39614 2897 ft 177 kts 279°
2026-04-14 10:46 29.74412 122.38388 2684 ft 172 kts 315°
2026-04-14 10:46 29.75440 122.37718 2449 ft 174 kts 351°
2026-04-14 10:47 29.76653 122.37781 2329 ft 177 kts
2026-04-14 10:47 29.77859 122.37953 2290 ft 174 kts 352°
2026-04-14 10:47 29.79062 122.37794 2293 ft 174 kts 352°
2026-04-14 10:47 29.80271 122.37663 2286 ft 175 kts 352°
2026-04-14 10:48 29.81470 122.37540 2154 ft 168 kts 353°
2026-04-14 10:48 29.82585 122.37429 1967 ft 154 kts 353°
2026-04-14 10:48 29.83617 122.37325 1795 ft 143 kts 353°
2026-04-14 10:48 29.84579 122.37229 1602 ft 135 kts 353°
2026-04-14 10:49 29.85509 122.37135 1441 ft 134 kts 353°
2026-04-14 10:49 29.86434 122.37038 1219 ft 133 kts 353°
2026-04-14 10:49 29.87340 122.36902 1039 ft 132 kts 351°
2026-04-14 10:49 29.88252 122.36768 812 ft 132 kts 353°
2026-04-14 10:50 29.89158 122.36684 676 ft 133 kts 355°
2026-04-14 10:50 29.90077 122.36579 470 ft 133 kts 353°
2026-04-14 10:50 29.91019 122.36486 308 ft 134 kts 355°
2026-04-14 10:50 29.91941 122.36374 152 ft 134 kts 356°
2026-04-14 10:51 29.92859 122.36283 32 ft 123 kts 355°
2026-04-14 10:51 29.93563 122.36215 13 ft 77 kts 355°
2026-04-14 10:51 29.93925 122.36179 15 ft 33 kts 355°
2026-04-14 10:51 29.94142 122.36155 15 ft 28 kts 351°
2026-04-14 10:52 29.94180 122.36091 15 ft 8 kts 268°
2026-04-14 10:52 29.94175 122.36032 15 ft 7 kts 265°
2026-04-14 10:52 29.94164 122.35975 18 ft 9 kts 230°
2026-04-14 10:52 29.94080 122.35971 16 ft 16 kts 175°
2026-04-14 10:53 29.93956 122.35984 15 ft 18 kts 175°
2026-04-14 10:53 29.93835 122.35990 15 ft 9 kts 198°
2026-04-14 10:53 29.93813 122.35935 15 ft 8 kts 247°
2026-04-14 10:53 29.93756 122.35923 15 ft 9 kts 175°
2026-04-14 10:54 29.93698 122.35929 15 ft 8 kts 175°
2026-04-14 10:54 29.93644 122.35933 15 ft 8 kts 185°
2026-04-14 10:54 29.93617 122.35895 15 ft 6 kts 266°
2026-04-14 10:54 29.93614 122.35855 15 ft 2 kts 265°
2026-04-14 10:55 29.93614 122.35851 15 ft 0 kts 265°